| time (UTC) | temp C | wind direction | speed KPH | gust KPH | rain 1hr cm | rain 24hr cm | rain mn cm | humidity % | barometer mb |
| 20260508025203 | 11 | 224 | 0.0 | 0.0 | 0.00 | 0.00 | 0.00 | 32 | 1023.3 |
| 20260508024642 | 11 | 224 | 0.0 | 0.0 | 0.00 | 0.00 | 0.00 | 32 | 1023.4 |
| 20260508024115 | 11 | 224 | 0.0 | 0.0 | 0.00 | 0.00 | 0.00 | 32 | 1023.3 |
| 20260508023619 | 11 | 224 | 0.0 | 0.0 | 0.00 | 0.00 | 0.00 | 32 | 1023.3 |
| 20260508023320 | 12 | 224 | 0.0 | 0.0 | 0.00 | 0.00 | 0.00 | 32 | 1023.2 |
| 20260508022549 | 12 | 224 | 0.0 | 0.0 | 0.00 | 0.00 | 0.00 | 32 | 1023.2 |
| 20260508022022 | 12 | 224 | 0.0 | 0.0 | 0.00 | 0.00 | 0.00 | 32 | 1023.2 |
| 20260508021501 | 12 | 224 | 0.0 | 0.0 | 0.00 | 0.00 | 0.00 | 32 | 1023.2 |
| 20260508021004 | 12 | 224 | 0.0 | 0.0 | 0.00 | 0.00 | 0.00 | 32 | 1023.1 |
| 20260508020706 | 12 | 224 | 0.0 | 0.0 | 0.00 | 0.00 | 0.00 | 32 | 1023.0 |
| 20260508015934 | 12 | 224 | 0.0 | 0.0 | 0.00 | 0.00 | 0.00 | 32 | 1023.0 |
| 20260508015406 | 12 | 224 | 0.0 | 0.0 | 0.00 | 0.00 | 0.00 | 32 | 1022.9 |
| 20260508015135 | 12 | 224 | 0.0 | 0.0 | 0.00 | 0.00 | 0.00 | 32 | 1022.9 |
| 20260508014408 | 12 | 224 | 0.0 | 0.0 | 0.00 | 0.00 | 0.00 | 31 | 1022.8 |
| 20260508013828 | 12 | 224 | 0.0 | 0.0 | 0.00 | 0.00 | 0.00 | 31 | 1022.8 |
| 20260508013300 | 12 | 224 | 0.0 | 0.0 | 0.00 | 0.00 | 0.00 | 31 | 1022.7 |
| 20260508013017 | 12 | 224 | 0.0 | 0.0 | 0.00 | 0.00 | 0.00 | 30 | 1022.6 |
| 20260508012248 | 13 | 224 | 0.0 | 0.0 | 0.00 | 0.00 | 0.00 | 30 | 1022.7 |
| 20260508011745 | 13 | 224 | 0.0 | 0.0 | 0.00 | 0.00 | 0.00 | 30 | 1022.6 |
| 20260508011237 | 13 | 224 | 0.0 | 0.0 | 0.00 | 0.00 | 0.00 | 29 | 1022.6 |
| 20260508010947 | 13 | 225 | 0.0 | 0.0 | 0.00 | 0.00 | 0.00 | 29 | 1022.6 |
| 20260508010214 | 13 | 224 | 0.0 | 0.0 | 0.00 | 0.00 | 0.00 | 30 | 1022.6 |
| 20260508005645 | 13 | 224 | 0.0 | 0.0 | 0.00 | 0.00 | 0.00 | 29 | 1022.6 |
| 20260508005144 | 13 | 224 | 0.0 | 0.0 | 0.00 | 0.00 | 0.00 | 29 | 1022.6 |
| 20260508004617 | 13 | 224 | 0.0 | 0.0 | 0.00 | 0.00 | 0.00 | 29 | 1022.6 |
| 20260508004101 | 13 | 224 | 0.0 | 0.0 | 0.00 | 0.00 | 0.00 | 29 | 1022.6 |
| 20260508003835 | 14 | 224 | 0.0 | 0.0 | 0.00 | 0.00 | 0.00 | 28 | 1022.6 |
| 20260508003038 | 14 | 224 | 0.0 | 0.0 | 0.00 | 0.00 | 0.00 | 28 | 1022.5 |
| 20260508002512 | 14 | 224 | 0.0 | 0.0 | 0.00 | 0.00 | 0.00 | 27 | 1022.6 |
| 20260508001943 | 14 | 224 | 0.0 | 0.0 | 0.00 | 0.00 | 0.00 | 27 | 1022.6 |
| 20260508001715 | 14 | 246 | 0.0 | 0.0 | 0.00 | 0.00 | 0.00 | 28 | 1022.6 |
| 20260508000921 | 15 | 240 | 0.0 | 0.0 | 0.00 | 0.00 | 0.00 | 27 | 1022.6 |
| 20260508000339 | 15 | 240 | 0.0 | 0.0 | 0.00 | 0.00 | 0.00 | 26 | 1022.5 |
| 20260507235840 | 15 | 240 | 0.0 | 0.0 | 0.00 | 0.00 | 0.00 | 27 | 1022.5 |
| 20260507235545 | 15 | 242 | 0.0 | 0.0 | 0.00 | 0.00 | 0.00 | 27 | 1022.6 |
| 20260507234810 | 15 | 242 | 0.0 | 0.0 | 0.00 | 0.00 | 0.00 | 26 | 1022.7 |
| 20260507234308 | 15 | 242 | 0.0 | 0.0 | 0.00 | 0.00 | 0.00 | 27 | 1022.7 |
| 20260507233742 | 15 | 243 | 0.0 | 0.0 | 0.00 | 0.00 | 0.00 | 26 | 1022.8 |
| 20260507233203 | 15 | 242 | 0.0 | 0.0 | 0.00 | 0.00 | 0.00 | 25 | 1022.8 |
| 20260507232638 | 15 | 257 | 0.0 | 0.0 | 0.00 | 0.00 | 0.00 | 26 | 1022.8 |
| 20260507232346 | 16 | 238 | 0.0 | 0.0 | 0.00 | 0.00 | 0.00 | 24 | 1022.9 |
| 20260507231551 | 16 | 188 | 0.0 | 0.0 | 0.00 | 0.00 | 0.00 | 23 | 1022.9 |
| 20260507231258 | 16 | 251 | 0.0 | 0.0 | 0.00 | 0.00 | 0.00 | 23 | 1022.9 |
| 20260507230528 | 16 | 243 | 0.0 | 0.0 | 0.00 | 0.00 | 0.00 | 23 | 1022.9 |
| 20260507230013 | 17 | 304 | 0.0 | 0.0 | 0.00 | 0.00 | 0.00 | 22 | 1023.0 |
| 20260507225515 | 17 | 346 | 0.0 | 0.0 | 0.00 | 0.00 | 0.00 | 22 | 1023.0 |
| 20260507224950 | 17 | 161 | 0.0 | 0.0 | 0.00 | 0.00 | 0.00 | 23 | 1023.0 |
| 20260507224436 | 17 | 227 | 0.0 | 0.0 | 0.00 | 0.00 | 0.00 | 22 | 1023.0 |
| 20260507223934 | 17 | 243 | 0.0 | 0.0 | 0.00 | 0.00 | 0.00 | 22 | 1023.2 |
| 20260507223704 | 17 | 327 | 0.0 | 3.2 | 0.00 | 0.00 | 0.00 | 22 | 1023.2 |
| 20260507222931 | 17 | 257 | 0.0 | 3.2 | 0.00 | 0.00 | 0.00 | 22 | 1023.2 |
| 20260507222434 | 17 | 214 | 0.0 | 4.8 | 0.00 | 0.00 | 0.00 | 21 | 1023.1 |
| 20260507221909 | 17 | 194 | 0.0 | 4.8 | 0.00 | 0.00 | 0.00 | 21 | 1023.1 |
| 20260507221356 | 17 | 254 | 0.0 | 1.6 | 0.00 | 0.00 | 0.00 | 21 | 1023.2 |
| 20260507220856 | 17 | 271 | 0.0 | 9.7 | 0.00 | 0.00 | 0.00 | 22 | 1023.2 |
| 20260507220345 | 17 | 284 | 0.0 | 9.7 | 0.00 | 0.00 | 0.00 | 22 | 1023.1 |
| 20260507215842 | 17 | 336 | 0.0 | 6.4 | 0.00 | 0.00 | 0.00 | 22 | 1023.2 |
| 20260507215332 | 17 | 307 | 0.0 | 6.4 | 0.00 | 0.00 | 0.00 | 21 | 1023.3 |
| 20260507214833 | 17 | 245 | 0.0 | 1.6 | 0.00 | 0.00 | 0.00 | 21 | 1023.3 |
| 20260507214333 | 17 | 187 | 0.0 | 1.6 | 0.00 | 0.00 | 0.00 | 22 | 1023.3 |
| 20260507213831 | 17 | 350 | 0.0 | 6.4 | 0.00 | 0.00 | 0.00 | 22 | 1023.4 |
| 20260507213331 | 17 | 243 | 0.0 | 6.4 | 0.00 | 0.00 | 0.00 | 22 | 1023.4 |
| 20260507212827 | 17 | 327 | 0.0 | 1.6 | 0.00 | 0.00 | 0.00 | 22 | 1023.4 |
| 20260507212324 | 16 | 268 | 0.0 | 1.6 | 0.00 | 0.00 | 0.00 | 22 | 1023.4 |
| 20260507211824 | 17 | 22 | 0.0 | 1.6 | 0.00 | 0.00 | 0.00 | 24 | 1023.5 |
| 20260507211310 | 16 | 252 | 0.0 | 1.6 | 0.00 | 0.00 | 0.00 | 23 | 1023.5 |
| 20260507210812 | 17 | 278 | 0.0 | 0.0 | 0.00 | 0.00 | 0.00 | 22 | 1023.6 |
| 20260507210747 | 17 | 255 | 0.0 | 1.6 | 0.00 | 0.00 | 0.00 | 21 | 1023.6 |
| 20260507205722 | 17 | 263 | 0.0 | 3.2 | 0.00 | 0.00 | 0.00 | 21 | 1023.7 |
| 20260507205452 | 17 | 263 | 0.0 | 3.2 | 0.00 | 0.00 | 0.00 | 21 | 1023.6 |
| 20260507204659 | 17 | 194 | 0.0 | 0.0 | 0.00 | 0.00 | 0.00 | 25 | 1023.8 |
| 20260507204139 | 16 | 246 | 0.0 | 1.6 | 0.00 | 0.00 | 0.00 | 24 | 1023.8 |
| 20260507203619 | 17 | 5 | 0.0 | 1.6 | 0.00 | 0.00 | 0.00 | 23 | 1024.0 |
| 20260507203118 | 17 | 230 | 0.0 | 1.6 | 0.00 | 0.00 | 0.00 | 21 | 1023.9 |
| 20260507202613 | 16 | 248 | 0.0 | 1.6 | 0.00 | 0.00 | 0.00 | 22 | 1024.0 |
| 20260507202319 | 16 | 271 | 0.0 | 1.6 | 0.00 | 0.00 | 0.00 | 25 | 1024.0 |
| 20260507201535 | 15 | 350 | 0.0 | 3.2 | 0.00 | 0.00 | 0.00 | 25 | 1024.0 |
| 20260507201013 | 15 | 167 | 0.0 | 4.8 | 0.00 | 0.00 | 0.00 | 22 | 1024.1 |
| 20260507200509 | 16 | 241 | 0.0 | 8.0 | 0.00 | 0.00 | 0.00 | 21 | 1024.2 |
| 20260507200009 | 16 | 236 | 0.0 | 8.0 | 0.00 | 0.00 | 0.00 | 22 | 1024.3 |
| 20260507195458 | 16 | 241 | 0.0 | 0.0 | 0.00 | 0.00 | 0.00 | 23 | 1024.2 |
| 20260507194957 | 16 | 338 | 0.0 | 0.0 | 0.00 | 0.00 | 0.00 | 25 | 1024.3 |
| 20260507194454 | 16 | 355 | 0.0 | 0.0 | 0.00 | 0.00 | 0.00 | 23 | 1024.4 |
| 20260507193932 | 16 | 266 | 0.0 | 0.0 | 0.00 | 0.00 | 0.00 | 22 | 1024.5 |
| 20260507193359 | 17 | 48 | 0.0 | 0.0 | 0.00 | 0.00 | 0.00 | 22 | 1024.5 |
| 20260507192831 | 16 | 208 | 0.0 | 0.0 | 0.00 | 0.00 | 0.00 | 24 | 1024.4 |
| 20260507192323 | 16 | 211 | 0.0 | 0.0 | 0.00 | 0.00 | 0.00 | 22 | 1024.5 |
| 20260507191757 | 16 | 72 | 0.0 | 0.0 | 0.00 | 0.00 | 0.00 | 23 | 1024.5 |
| 20260507191505 | 16 | 250 | 0.0 | 4.8 | 0.00 | 0.00 | 0.00 | 26 | 1024.6 |
| 20260507190935 | 16 | 234 | 0.0 | 4.8 | 0.00 | 0.00 | 0.00 | 22 | 1024.8 |
| 20260507190139 | 17 | 215 | 0.0 | 1.6 | 0.00 | 0.00 | 0.00 | 23 | 1024.8 |
| 20260507185618 | 16 | 200 | 0.0 | 1.6 | 0.00 | 0.00 | 0.00 | 26 | 1024.8 |
| 20260507185035 | 16 | 198 | 0.0 | 0.0 | 0.00 | 0.00 | 0.00 | 26 | 1024.8 |
| 20260507184510 | 15 | 279 | 0.0 | 0.0 | 0.00 | 0.00 | 0.00 | 26 | 1024.8 |
| 20260507183940 | 15 | 279 | 0.0 | 1.6 | 0.00 | 0.00 | 0.00 | 25 | 1024.9 |
| 20260507183711 | 15 | 274 | 0.0 | 1.6 | 0.00 | 0.00 | 0.00 | 25 | 1025.0 |
| 20260507182919 | 15 | 261 | 0.0 | 0.0 | 0.00 | 0.00 | 0.00 | 24 | 1025.0 |
| 20260507182415 | 15 | 276 | 0.0 | 0.0 | 0.00 | 0.00 | 0.00 | 26 | 1025.0 |
| 20260507181920 | 15 | 215 | 0.0 | 0.0 | 0.00 | 0.00 | 0.00 | 29 | 1024.9 |
| 20260507181624 | 15 | 308 | 0.0 | 0.0 | 0.00 | 0.00 | 0.00 | 26 | 1025.1 |
| 20260507180832 | 15 | 298 | 0.0 | 0.0 | 0.00 | 0.00 | 0.00 | 26 | 1025.1 |
| 20260507180254 | 15 | 24 | 0.0 | 0.0 | 0.00 | 0.00 | 0.00 | 28 | 1025.0 |
| 20260507175753 | 15 | 273 | 0.0 | 1.6 | 0.00 | 0.00 | 0.00 | 27 | 1025.1 |
| 20260507175240 | 15 | 304 | 0.0 | 1.6 | 0.00 | 0.00 | 0.00 | 25 | 1025.1 |
| 20260507174739 | 15 | 243 | 0.0 | 1.6 | 0.00 | 0.00 | 0.00 | 28 | 1025.1 |
| 20260507174210 | 15 | 355 | 0.0 | 0.0 | 0.00 | 0.00 | 0.00 | 29 | 1025.1 |
| 20260507173709 | 15 | 257 | 0.0 | 1.6 | 0.00 | 0.00 | 0.00 | 28 | 1025.3 |
| 20260507173143 | 14 | 278 | 0.0 | 1.6 | 0.00 | 0.00 | 0.00 | 26 | 1025.2 |
| 20260507172618 | 14 | 196 | 0.0 | 8.0 | 0.00 | 0.00 | 0.00 | 27 | 1025.3 |
| 20260507172112 | 14 | 216 | 0.0 | 8.0 | 0.00 | 0.00 | 0.00 | 28 | 1025.3 |
| 20260507171611 | 14 | 272 | 0.0 | 0.0 | 0.00 | 0.00 | 0.00 | 27 | 1025.5 |
| 20260507171111 | 14 | 351 | 0.0 | 1.6 | 0.00 | 0.00 | 0.00 | 27 | 1025.5 |
| 20260507170615 | 13 | 303 | 0.0 | 1.6 | 0.00 | 0.00 | 0.00 | 28 | 1025.6 |
| 20260507170046 | 13 | 243 | 0.0 | 3.2 | 0.00 | 0.00 | 0.00 | 27 | 1025.6 |
| 20260507165547 | 13 | 242 | 0.0 | 3.2 | 0.00 | 0.00 | 0.00 | 25 | 1025.6 |
| 20260507165317 | 13 | 277 | 0.0 | 3.2 | 0.00 | 0.00 | 0.00 | 28 | 1025.6 |
| 20260507164547 | 12 | 323 | 0.0 | 1.6 | 0.00 | 0.00 | 0.00 | 29 | 1025.7 |
| 20260507164021 | 12 | 348 | 0.0 | 1.6 | 0.00 | 0.00 | 0.00 | 31 | 1025.8 |
| 20260507163455 | 12 | 226 | 0.0 | 1.6 | 0.00 | 0.00 | 0.00 | 31 | 1025.7 |
| 20260507162928 | 12 | 334 | 0.0 | 0.0 | 0.00 | 0.00 | 0.00 | 32 | 1025.8 |
| 20260507162427 | 12 | 257 | 0.0 | 0.0 | 0.00 | 0.00 | 0.00 | 33 | 1025.8 |
| 20260507161910 | 12 | 288 | 0.0 | 0.0 | 0.00 | 0.00 | 0.00 | 33 | 1025.8 |
| 20260507161412 | 12 | 348 | 0.0 | 0.0 | 0.00 | 0.00 | 0.00 | 33 | 1025.9 |
| 20260507160844 | 12 | 310 | 0.0 | 0.0 | 0.00 | 0.00 | 0.00 | 33 | 1025.9 |
| 20260507160613 | 12 | 309 | 0.0 | 0.0 | 0.00 | 0.00 | 0.00 | 33 | 1026.0 |
| 20260507155814 | 11 | 309 | 0.0 | 0.0 | 0.00 | 0.00 | 0.00 | 35 | 1026.0 |
| 20260507155313 | 11 | 340 | 0.0 | 0.0 | 0.00 | 0.00 | 0.00 | 35 | 1026.0 |
| 20260507154756 | 12 | 261 | 0.0 | 0.0 | 0.00 | 0.00 | 0.00 | 32 | 1025.9 |
| 20260507154256 | 11 | 224 | 0.0 | 0.0 | 0.00 | 0.00 | 0.00 | 33 | 1025.9 |
| 20260507153757 | 10 | 224 | 0.0 | 0.0 | 0.00 | 0.00 | 0.00 | 36 | 1026.0 |
| 20260507153523 | 10 | 44 | 0.0 | 1.6 | 0.00 | 0.00 | 0.00 | 35 | 1026.0 |
| 20260507152751 | 10 | 222 | 0.0 | 1.6 | 0.00 | 0.00 | 0.00 | 36 | 1026.1 |
| 20260507152456 | 10 | 230 | 0.0 | 3.2 | 0.00 | 0.00 | 0.00 | 37 | 1026.1 |
| 20260507151928 | 10 | 230 | 0.0 | 3.2 | 0.00 | 0.00 | 0.00 | 37 | 1026.1 |
| 20260507151149 | 10 | 234 | 0.0 | 0.0 | 0.00 | 0.00 | 0.00 | 37 | 1026.2 |
| 20260507150623 | 10 | 234 | 0.0 | 0.0 | 0.00 | 0.00 | 0.00 | 40 | 1026.1 |
| 20260507150123 | 9 | 234 | 0.0 | 0.0 | 0.00 | 0.00 | 0.00 | 38 | 1026.1 |
| 20260507145856 | 9 | 234 | 0.0 | 0.0 | 0.00 | 0.00 | 0.00 | 39 | 1026.1 |
| 20260507145124 | 8 | 234 | 0.0 | 0.0 | 0.00 | 0.00 | 0.00 | 41 | 1026.1 |
| 20260507144622 | 8 | 234 | 0.0 | 0.0 | 0.00 | 0.00 | 0.00 | 42 | 1026.2 |
| 20260507144119 | 8 | 234 | 0.0 | 0.0 | 0.00 | 0.00 | 0.00 | 43 | 1026.2 |
| 20260507143851 | 8 | 233 | 0.0 | 0.0 | 0.00 | 0.00 | 0.00 | 43 | 1026.2 |
| 20260507143053 | 8 | 227 | 0.0 | 0.0 | 0.00 | 0.00 | 0.00 | 46 | 1026.2 |
| 20260507142522 | 8 | 227 | 0.0 | 0.0 | 0.00 | 0.00 | 0.00 | 45 | 1026.3 |
| 20260507142254 | 7 | 227 | 0.0 | 0.0 | 0.00 | 0.00 | 0.00 | 46 | 1026.3 |
| 20260507141457 | 7 | 227 | 0.0 | 0.0 | 0.00 | 0.00 | 0.00 | 46 | 1026.3 |
| 20260507141222 | 7 | 227 | 0.0 | 0.0 | 0.00 | 0.00 | 0.00 | 48 | 1026.4 |
| 20260507140425 | 6 | 227 | 0.0 | 0.0 | 0.00 | 0.00 | 0.00 | 49 | 1026.4 |
| 20260507135922 | 6 | 227 | 0.0 | 0.0 | 0.00 | 0.00 | 0.00 | 52 | 1026.3 |
| 20260507135648 | 6 | 227 | 0.0 | 0.0 | 0.00 | 0.00 | 0.00 | 54 | 1026.4 |
| 20260507134907 | 6 | 227 | 0.0 | 0.0 | 0.00 | 0.00 | 0.00 | 59 | 1026.4 |
| 20260507134406 | 5 | 227 | 0.0 | 0.0 | 0.00 | 0.00 | 0.00 | 60 | 1026.4 |
| 20260507134134 | 5 | 227 | 0.0 | 0.0 | 0.00 | 0.00 | 0.00 | 61 | 1026.4 |
| 20260507133328 | 5 | 226 | 0.0 | 0.0 | 0.00 | 0.00 | 0.00 | 64 | 1026.4 |
| 20260507132801 | 5 | 225 | 0.0 | 0.0 | 0.00 | 0.00 | 0.00 | 63 | 1026.4 |
| 20260507132237 | 4 | 225 | 0.0 | 0.0 | 0.00 | 0.00 | 0.00 | 64 | 1026.5 |
| 20260507131732 | 4 | 225 | 0.0 | 0.0 | 0.00 | 0.00 | 0.00 | 65 | 1026.5 |
| 20260507131228 | 4 | 225 | 0.0 | 0.0 | 0.00 | 0.00 | 0.00 | 65 | 1026.5 |
| 20260507130710 | 3 | 225 | 0.0 | 0.0 | 0.00 | 0.00 | 0.00 | 66 | 1026.5 |
| 20260507130209 | 3 | 225 | 0.0 | 0.0 | 0.00 | 0.00 | 0.00 | 67 | 1026.5 |
| 20260507130149 | 3 | 225 | 0.0 | 0.0 | 0.00 | 0.00 | 0.00 | 69 | 1026.5 |
| 20260507125146 | 3 | 225 | 0.0 | 0.0 | 0.00 | 0.00 | 0.00 | 69 | 1026.5 |
| 20260507124643 | 3 | 225 | 0.0 | 0.0 | 0.00 | 0.00 | 0.00 | 69 | 1026.6 |
| 20260507124142 | 2 | 225 | 0.0 | 0.0 | 0.00 | 0.00 | 0.00 | 70 | 1026.5 |
| 20260507123643 | 2 | 225 | 0.0 | 0.0 | 0.00 | 0.00 | 0.00 | 71 | 1026.5 |
| 20260507123145 | 2 | 225 | 0.0 | 0.0 | 0.00 | 0.00 | 0.00 | 72 | 1026.6 |
| 20260507122617 | 2 | 225 | 0.0 | 0.0 | 0.00 | 0.00 | 0.00 | 72 | 1026.6 |
| 20260507122115 | 2 | 225 | 0.0 | 0.0 | 0.00 | 0.00 | 0.00 | 73 | 1026.6 |
| 20260507121610 | 2 | 225 | 0.0 | 0.0 | 0.00 | 0.00 | 0.00 | 74 | 1026.6 |
| 20260507121109 | 1 | 229 | 0.0 | 0.0 | 0.00 | 0.00 | 0.00 | 74 | 1026.6 |
| 20260507120544 | 1 | 229 | 0.0 | 0.0 | 0.00 | 0.00 | 0.00 | 74 | 1026.6 |
| 20260507120022 | 1 | 229 | 0.0 | 0.0 | 0.00 | 0.00 | 0.00 | 74 | 1026.6 |
| 20260507115525 | 1 | 229 | 0.0 | 0.0 | 0.00 | 0.00 | 0.00 | 74 | 1026.6 |
| 20260507115508 | 1 | 229 | 0.0 | 0.0 | 0.00 | 0.00 | 0.00 | 74 | 1026.5 |
| 20260507114506 | 1 | 229 | 0.0 | 0.0 | 0.00 | 0.00 | 0.00 | 74 | 1026.5 |
| 20260507114003 | 1 | 229 | 0.0 | 0.0 | 0.00 | 0.00 | 0.00 | 74 | 1026.5 |
| 20260507113436 | 1 | 229 | 0.0 | 0.0 | 0.00 | 0.00 | 0.00 | 74 | 1026.5 |
| 20260507112936 | 1 | 229 | 0.0 | 0.0 | 0.00 | 0.00 | 0.00 | 74 | 1026.5 |
| 20260507112439 | 1 | 229 | 0.0 | 0.0 | 0.00 | 0.00 | 0.00 | 74 | 1026.5 |
| 20260507111924 | 1 | 229 | 0.0 | 0.0 | 0.00 | 0.00 | 0.00 | 74 | 1026.5 |
| 20260507111422 | 1 | 229 | 0.0 | 0.0 | 0.00 | 0.00 | 0.00 | 73 | 1026.5 |
| 20260507111130 | 1 | 229 | 0.0 | 0.0 | 0.00 | 0.00 | 0.00 | 73 | 1026.5 |
| 20260507110354 | 1 | 229 | 0.0 | 0.0 | 0.00 | 0.00 | 0.00 | 73 | 1026.4 |
| 20260507105833 | 1 | 229 | 0.0 | 0.0 | 0.00 | 0.00 | 0.00 | 74 | 1026.4 |
| 20260507105311 | 1 | 229 | 0.0 | 0.0 | 0.00 | 0.00 | 0.00 | 74 | 1026.4 |
| 20260507104747 | 1 | 229 | 0.0 | 0.0 | 0.00 | 0.00 | 0.00 | 73 | 1026.5 |
| 20260507104225 | 1 | 229 | 0.0 | 0.0 | 0.00 | 0.00 | 0.00 | 73 | 1026.5 |
| 20260507103727 | 1 | 229 | 0.0 | 0.0 | 0.00 | 0.00 | 0.00 | 73 | 1026.5 |
| 20260507103223 | 1 | 229 | 0.0 | 0.0 | 0.00 | 0.00 | 0.00 | 73 | 1026.5 |
| 20260507102659 | 1 | 229 | 0.0 | 0.0 | 0.00 | 0.00 | 0.00 | 73 | 1026.5 |
| 20260507102136 | 1 | 229 | 0.0 | 0.0 | 0.00 | 0.00 | 0.00 | 72 | 1026.5 |
| 20260507101619 | 1 | 229 | 0.0 | 0.0 | 0.00 | 0.00 | 0.00 | 72 | 1026.5 |
| 20260507101118 | 1 | 229 | 0.0 | 0.0 | 0.00 | 0.00 | 0.00 | 71 | 1026.5 |
| 20260507100619 | 1 | 229 | 0.0 | 0.0 | 0.00 | 0.00 | 0.00 | 71 | 1026.6 |
| 20260507100112 | 1 | 229 | 0.0 | 0.0 | 0.00 | 0.00 | 0.00 | 70 | 1026.6 |
| 20260507095538 | 1 | 229 | 0.0 | 0.0 | 0.00 | 0.00 | 0.00 | 70 | 1026.6 |
| 20260507095019 | 1 | 229 | 0.0 | 0.0 | 0.00 | 0.00 | 0.00 | 69 | 1026.6 |
| 20260507094452 | 1 | 229 | 0.0 | 0.0 | 0.00 | 0.00 | 0.00 | 69 | 1026.6 |
| 20260507094202 | 2 | 229 | 0.0 | 0.0 | 0.00 | 0.00 | 0.00 | 69 | 1026.5 |
| 20260507093637 | 2 | 229 | 0.0 | 0.0 | 0.00 | 0.00 | 0.00 | 69 | 1026.6 |
| 20260507092816 | 2 | 229 | 0.0 | 0.0 | 0.00 | 0.00 | 0.00 | 69 | 1026.6 |
| 20260507092250 | 2 | 229 | 0.0 | 0.0 | 0.00 | 0.00 | 0.00 | 69 | 1026.6 |
| 20260507091726 | 2 | 229 | 0.0 | 0.0 | 0.00 | 0.00 | 0.00 | 68 | 1026.6 |
| 20260507091201 | 2 | 229 | 0.0 | 0.0 | 0.00 | 0.00 | 0.00 | 68 | 1026.6 |
| 20260507090636 | 2 | 229 | 0.0 | 0.0 | 0.00 | 0.00 | 0.00 | 68 | 1026.6 |
| 20260507090105 | 2 | 229 | 0.0 | 0.0 | 0.00 | 0.00 | 0.00 | 68 | 1026.7 |
| 20260507085545 | 2 | 229 | 0.0 | 0.0 | 0.00 | 0.00 | 0.00 | 68 | 1026.7 |
| 20260507085020 | 2 | 229 | 0.0 | 0.0 | 0.00 | 0.00 | 0.00 | 68 | 1026.6 |
| 20260507084517 | 2 | 229 | 0.0 | 3.2 | 0.00 | 0.00 | 0.00 | 69 | 1026.7 |
| 20260507083952 | 2 | 232 | 0.0 | 0.0 | 0.00 | 0.00 | 0.00 | 69 | 1026.7 |
| 20260507083429 | 2 | 240 | 0.0 | 0.0 | 0.00 | 0.00 | 0.00 | 69 | 1026.7 |
| 20260507082916 | 2 | 240 | 0.0 | 0.0 | 0.00 | 0.00 | 0.00 | 69 | 1026.7 |
| 20260507082350 | 2 | 240 | 0.0 | 0.0 | 0.00 | 0.00 | 0.00 | 69 | 1026.7 |
| 20260507081826 | 2 | 240 | 0.0 | 0.0 | 0.00 | 0.00 | 0.00 | 68 | 1026.7 |
| 20260507081301 | 2 | 240 | 0.0 | 0.0 | 0.00 | 0.00 | 0.00 | 68 | 1026.7 |
| 20260507080734 | 2 | 240 | 0.0 | 0.0 | 0.00 | 0.00 | 0.00 | 69 | 1026.7 |
| 20260507080206 | 2 | 241 | 0.0 | 0.0 | 0.00 | 0.00 | 0.00 | 69 | 1026.6 |
| 20260507075659 | 2 | 241 | 0.0 | 0.0 | 0.00 | 0.00 | 0.00 | 69 | 1026.7 |
| 20260507075132 | 2 | 241 | 0.0 | 0.0 | 0.00 | 0.00 | 0.00 | 69 | 1026.7 |
| 20260507074626 | 3 | 241 | 0.0 | 0.0 | 0.00 | 0.00 | 0.00 | 69 | 1026.7 |
| 20260507074356 | 3 | 243 | 0.0 | 0.0 | 0.00 | 0.00 | 0.00 | 69 | 1026.8 |
| 20260507073055 | 3 | 246 | 0.0 | 0.0 | 0.00 | 0.00 | 0.00 | 68 | 1026.9 |
| 20260507072547 | 3 | 246 | 0.0 | 0.0 | 0.00 | 0.00 | 0.00 | 67 | 1027.0 |
| 20260507072021 | 3 | 248 | 0.0 | 0.0 | 0.00 | 0.00 | 0.00 | 67 | 1027.0 |
| 20260507071456 | 3 | 248 | 0.0 | 0.0 | 0.00 | 0.00 | 0.00 | 66 | 1027.0 |
| 20260507070929 | 3 | 249 | 0.0 | 0.0 | 0.00 | 0.00 | 0.00 | 65 | 1027.2 |
| 20260507070425 | 3 | 249 | 0.0 | 0.0 | 0.00 | 0.00 | 0.00 | 65 | 1027.2 |
| 20260507065925 | 3 | 249 | 0.0 | 0.0 | 0.00 | 0.00 | 0.00 | 64 | 1027.3 |
| 20260507065414 | 3 | 249 | 0.0 | 0.0 | 0.00 | 0.00 | 0.00 | 63 | 1027.4 |
| 20260507064848 | 3 | 249 | 0.0 | 0.0 | 0.00 | 0.00 | 0.00 | 63 | 1027.4 |
| 20260507064319 | 3 | 249 | 0.0 | 0.0 | 0.00 | 0.00 | 0.00 | 63 | 1027.4 |
| 20260507063818 | 3 | 249 | 0.0 | 0.0 | 0.00 | 0.00 | 0.00 | 63 | 1027.4 |
| 20260507063314 | 3 | 249 | 0.0 | 0.0 | 0.00 | 0.00 | 0.00 | 62 | 1027.4 |
| 20260507062809 | 3 | 249 | 0.0 | 0.0 | 0.00 | 0.00 | 0.00 | 63 | 1027.5 |
| 20260507062247 | 4 | 249 | 0.0 | 0.0 | 0.00 | 0.00 | 0.00 | 63 | 1027.5 |
| 20260507061745 | 4 | 249 | 0.0 | 0.0 | 0.00 | 0.00 | 0.00 | 62 | 1027.6 |
| 20260507061242 | 4 | 249 | 0.0 | 0.0 | 0.00 | 0.00 | 0.00 | 62 | 1027.6 |
| 20260507060739 | 4 | 249 | 0.0 | 0.0 | 0.00 | 0.00 | 0.00 | 62 | 1027.7 |
| 20260507060238 | 4 | 249 | 0.0 | 0.0 | 0.00 | 0.00 | 0.00 | 62 | 1027.7 |
| 20260507055939 | 4 | 249 | 0.0 | 0.0 | 0.00 | 0.00 | 0.00 | 62 | 1027.7 |
| 20260507055152 | 5 | 249 | 0.0 | 0.0 | 0.00 | 0.00 | 0.00 | 63 | 1027.7 |
| 20260507054918 | 5 | 249 | 0.0 | 0.0 | 0.00 | 0.00 | 0.00 | 63 | 1027.7 |
| 20260507054146 | 5 | 249 | 0.0 | 0.0 | 0.00 | 0.00 | 0.00 | 62 | 1027.7 |
| 20260507053633 | 5 | 249 | 0.0 | 0.0 | 0.00 | 0.00 | 0.00 | 62 | 1027.7 |
| 20260507053135 | 5 | 249 | 0.0 | 0.0 | 0.00 | 0.00 | 0.00 | 62 | 1027.7 |
| 20260507052607 | 5 | 249 | 0.0 | 0.0 | 0.00 | 0.00 | 0.00 | 61 | 1027.8 |
| 20260507052057 | 5 | 249 | 0.0 | 0.0 | 0.00 | 0.00 | 0.00 | 61 | 1027.8 |
| 20260507051555 | 5 | 249 | 0.0 | 0.0 | 0.00 | 0.00 | 0.00 | 61 | 1027.9 |
| 20260507051324 | 5 | 249 | 0.0 | 0.0 | 0.00 | 0.00 | 0.00 | 62 | 1027.9 |
| 20260507050525 | 5 | 249 | 0.0 | 0.0 | 0.00 | 0.00 | 0.00 | 63 | 1027.9 |
| 20260507050255 | 5 | 249 | 0.0 | 0.0 | 0.00 | 0.00 | 0.00 | 61 | 1027.9 |
| 20260507045500 | 5 | 249 | 0.0 | 0.0 | 0.00 | 0.00 | 0.00 | 61 | 1027.9 |
| 20260507045004 | 5 | 249 | 0.0 | 0.0 | 0.00 | 0.00 | 0.00 | 60 | 1028.0 |
| 20260507044435 | 5 | 249 | 0.0 | 0.0 | 0.00 | 0.00 | 0.00 | 59 | 1028.0 |
| 20260507043934 | 5 | 249 | 0.0 | 0.0 | 0.00 | 0.00 | 0.00 | 58 | 1028.0 |
| 20260507043637 | 5 | 249 | 0.0 | 0.0 | 0.00 | 0.00 | 0.00 | 58 | 1028.1 |
| 20260507042904 | 5 | 249 | 0.0 | 0.0 | 0.00 | 0.00 | 0.00 | 58 | 1028.1 |
| 20260507042335 | 5 | 249 | 0.0 | 0.0 | 0.00 | 0.00 | 0.00 | 58 | 1028.1 |
| 20260507041825 | 5 | 249 | 0.0 | 0.0 | 0.00 | 0.00 | 0.00 | 57 | 1028.1 |
| 20260507041324 | 5 | 249 | 0.0 | 0.0 | 0.00 | 0.00 | 0.00 | 57 | 1028.2 |
| 20260507040758 | 5 | 249 | 0.0 | 0.0 | 0.00 | 0.00 | 0.00 | 57 | 1028.2 |
| 20260507040240 | 5 | 249 | 0.0 | 0.0 | 0.00 | 0.00 | 0.00 | 57 | 1028.2 |
| 20260507035742 | 5 | 249 | 0.0 | 0.0 | 0.00 | 0.00 | 0.00 | 57 | 1028.2 |
| 20260507035239 | 5 | 249 | 0.0 | 0.0 | 0.00 | 0.00 | 0.00 | 57 | 1028.3 |
| 20260507035011 | 5 | 249 | 0.0 | 0.0 | 0.00 | 0.00 | 0.00 | 57 | 1028.3 |
| 20260507034212 | 5 | 249 | 0.0 | 0.0 | 0.00 | 0.00 | 0.00 | 57 | 1028.3 |
| 20260507034145 | 5 | 249 | 0.0 | 0.0 | 0.00 | 0.00 | 0.00 | 57 | 1028.3 |
| 20260507033139 | 5 | 249 | 0.0 | 0.0 | 0.00 | 0.00 | 0.00 | 57 | 1028.3 |
| 20260507032609 | 5 | 249 | 0.0 | 0.0 | 0.00 | 0.00 | 0.00 | 58 | 1028.4 |
| 20260507032111 | 5 | 249 | 0.0 | 0.0 | 0.00 | 0.00 | 0.00 | 58 | 1028.4 |
| 20260507031614 | 5 | 249 | 0.0 | 0.0 | 0.00 | 0.00 | 0.00 | 58 | 1028.3 |
| 20260507031319 | 5 | 249 | 0.0 | 0.0 | 0.00 | 0.00 | 0.00 | 59 | 1028.4 |
| 20260507030519 | 5 | 249 | 0.0 | 0.0 | 0.00 | 0.00 | 0.00 | 59 | 1028.4 |
| 20260507025951 | 5 | 249 | 0.0 | 0.0 | 0.00 | 0.00 | 0.00 | 58 | 1028.5 |